Goat Rock Lake Weather Center

Moon Phase Calendar



Goat Rock Lake Water Level
Online Cameras

 


      

Current Conditions in Smiths
4/11/2021 10:35:10 PM

61°F
Feels Like 59
Clear
Humidity
45%
Pressure
29.71"
Wind
4.6 mph (WNW)
Dew Point
40°F
UV Index
0/10 (Low)
Visibility
6 mi

Hourly Forecast

Date & Time Sun, Apr 11
10:00 PM
Sun, Apr 11
11:00 PM
Mon, Apr 12
12:00 AM
Mon, Apr 12
1:00 AM
Mon, Apr 12
2:00 AM
Mon, Apr 12
3:00 AM
Mon, Apr 12
4:00 AM
Mon, Apr 12
5:00 AM
Mon, Apr 12
6:00 AM
Mon, Apr 12
7:00 AM
Mon, Apr 12
8:00 AM
Mon, Apr 12
9:00 AM
Mon, Apr 12
10:00 AM
Mon, Apr 12
11:00 AM
Mon, Apr 12
12:00 PM
Mon, Apr 12
1:00 PM
Mon, Apr 12
2:00 PM
Mon, Apr 12
3:00 PM
Mon, Apr 12
4:00 PM
Mon, Apr 12
5:00 PM
Mon, Apr 12
6:00 PM
Mon, Apr 12
7:00 PM
Mon, Apr 12
8:00 PM
Mon, Apr 12
9:00 PM
Mon, Apr 12
10:00 PM
Mon, Apr 12
11:00 PM
Tue, Apr 13
12:00 AM
Tue, Apr 13
1:00 AM
Tue, Apr 13
2:00 AM
Tue, Apr 13
3:00 AM
Tue, Apr 13
4:00 AM
Tue, Apr 13
5:00 AM
Tue, Apr 13
6:00 AM
Tue, Apr 13
7:00 AM
Tue, Apr 13
8:00 AM
Tue, Apr 13
9:00 AM
Tue, Apr 13
10:00 AM
Tue, Apr 13
11:00 AM
Tue, Apr 13
12:00 PM
Tue, Apr 13
1:00 PM
Tue, Apr 13
2:00 PM
Tue, Apr 13
3:00 PM
Tue, Apr 13
4:00 PM
Tue, Apr 13
5:00 PM
Tue, Apr 13
6:00 PM
Tue, Apr 13
7:00 PM
Tue, Apr 13
8:00 PM
Tue, Apr 13
9:00 PM
Condition
Clear

Clear

Clear

Clear

Clear

Clear

Clear

Clear

Clear

Clear

Clear

Clear

Clear

Clear

Clear

Clear

Clear

Clouds

Clouds

Clear

Clear

Clear

Clouds

Clouds

Clouds

Clouds

Clouds

Clouds

Clouds

Clouds

Clouds

Clouds

Clouds

Clouds

Clouds

Clouds

Clouds

Clouds

Clouds

Clouds

Clouds

Clouds

Clouds

Clouds

Clouds

Clouds

Clouds

Clear
Temperature 61°F59°F57°F56°F54°F54°F53°F53°F52°F52°F54°F60°F66°F71°F74°F77°F79°F80°F81°F80°F79°F75°F68°F64°F63°F61°F61°F61°F60°F59°F58°F57°F57°F57°F58°F64°F69°F73°F77°F79°F80°F81°F82°F82°F81°F77°F70°F67°F
Feels Like 59°F58°F56°F54°F53°F52°F52°F51°F51°F51°F53°F59°F65°F70°F73°F76°F79°F79°F80°F79°F79°F74°F67°F64°F62°F61°F60°F60°F59°F58°F57°F56°F56°F56°F57°F63°F68°F73°F77°F79°F80°F80°F81°F80°F80°F77°F70°F66°F
Cloudiness 1%1%0%0%0%0%0%0%0%0%0%0%0%0%0%0%0%22%13%9%8%8%16%42%23%48%61%69%59%67%36%34%35%40%42%91%92%95%96%97%97%100%96%90%85%75%63%3%
Visibility 6 mi6 mi6 mi6 mi6 mi6 mi6 mi6 mi6 mi6 mi6 mi6 mi6 mi6 mi6 mi6 mi6 mi6 mi6 mi6 mi6 mi6 mi6 mi6 mi6 mi6 mi6 mi6 mi6 mi6 mi6 mi6 mi6 mi6 mi6 mi6 mi6 mi6 mi6 mi6 mi6 mi6 mi6 mi6 mi6 mi6 mi6 mi6 mi
Precipitation 0%0%0%0%0%0%0%0%0%0%0%0%0%0%0%0%0%0%0%0%0%0%0%0%0%0%0%0%0%0%0%0%0%0%0%0%0%0%0%0%0%0%0%0%0%0%0%0%
Humidity 45%61%71%75%77%78%79%79%79%78%75%62%51%43%38%35%34%32%31%31%38%52%62%67%71%73%74%72%72%73%74%75%74%74%74%65%57%51%44%39%37%35%34%34%38%53%62%66%
Dew Point 40°F46°F48°F48°F47°F47°F46°F46°F46°F45°F46°F47°F48°F47°F47°F48°F48°F48°F47°F48°F52°F56°F54°F53°F53°F53°F52°F52°F51°F50°F50°F49°F49°F48°F50°F51°F53°F54°F54°F53°F52°F52°F51°F51°F53°F58°F56°F55°F
Pressure 29.71"29.74"29.77"29.8"29.8"29.8"29.83"29.83"29.83"29.85"29.88"29.88"29.88"29.91"29.91"29.91"29.88"29.88"29.88"29.85"29.88"29.88"29.91"29.94"29.97"29.97"29.97"29.97"29.97"29.97"29.97"29.97"30"30"30.03"30.06"30.06"30.06"30.06"30.03"30.03"30"30"29.97"29.97"30"30"30.03"
Wind Speed 5.6 mph5.3 mph5.2 mph5.2 mph4.9 mph4.4 mph4.4 mph5.2 mph4.8 mph4.3 mph3.9 mph4.2 mph5.3 mph5.8 mph7 mph8.5 mph8.5 mph8.7 mph8.8 mph8.7 mph7 mph4.9 mph4.1 mph4.5 mph4.3 mph4.2 mph4 mph3.5 mph3 mph3.3 mph3 mph3 mph3.3 mph3.2 mph3.6 mph2.7 mph2 mph0.6 mph2 mph3.4 mph4.2 mph5.2 mph6 mph6.1 mph4.9 mph3.5 mph3.5 mph3.8 mph
Wind
Direction
282°
WNW
293°
WNW
303°
WNW
308°
NW
310°
NW
318°
NW
316°
NW
316°
NW
326°
NW
328°
NNW
323°
NW
312°
NW
296°
WNW
292°
WNW
288°
WNW
286°
WNW
292°
WNW
295°
WNW
294°
WNW
293°
WNW
288°
WNW
279°
W
281°
W
279°
W
283°
WNW
279°
W
293°
WNW
306°
NW
313°
NW
322°
NW
337°
NNW
343°
NNW
348°
NNW
13°
NNE
20°
NNE
31°
NNE

N
35°
NE
168°
SSE
197°
SSW
202°
SSW
208°
SSW
218°
SW
218°
SW
220°
SW
215°
SW
220°
SW
223°
SW

Daily Forecast

Date High Low Precip. Humidity
Today
Apr 11

Rain
75 °F
59 °F
20%
38%
Monday
Apr 12

Clear
81 °F
52 °F
0%
35%
Tuesday
Apr 13

Clouds
82 °F
57 °F
0%
39%
Wednesday
Apr 14

Rain
72 °F
57 °F
32%
77%
Thursday
Apr 15

Rain
70 °F
52 °F
44%
39%
Friday
Apr 16

Rain
62 °F
49 °F
40%
40%
Saturday
Apr 17

Rain
72 °F
52 °F
33%
41%
Sunday
Apr 18

Clouds
74 °F
52 °F
0%
36%
Monday
Apr 19

Clouds
69 °F
59 °F
9%
64%
Tuesday
Apr 20

Rain
69 °F
56 °F
100%
70%
Wednesday
Apr 21

Clouds
72 °F
46 °F
4%
35%
Thursday
Apr 22

Clouds
69 °F
40 °F
0%
25%
Friday
Apr 23

Clear
75 °F
46 °F
0%
28%
Saturday
Apr 24

Clouds
79 °F
52 °F
0%
33%
Sunday
Apr 25

Clouds
81 °F
56 °F
0%
32%
Monday
Apr 26

Rain
72 °F
59 °F
100%
91%

Temperature 8-14 Day Outlook



Precipitation 8-14 Day Outlook




Quick Links
Goat Rock Lake News
Goat Rock Lake Photos
Goat Rock Lake Videos




About Us
Contact Us
Site Map
Search Site
Advertise With Us
   
GoatRock.LakesOnline.com
THE GOAT ROCK LAKE WEBSITE

Copyright 2021, Lakes Online
Privacy    |    Legal